Platteville, WI

10:44 PM CDT on April 24, 2017 (GMT -0500)
Platteville Municipal

Weather History for KPVB - November, 2012

Change the Weather History Date:

Wednesday, November 28, 2012

  Actual Average (KDBQ) Record (KDBQ)
Temperature  
Mean Temperature 32 °F -  
Max Temperature 42 °F 33 °F 63 °F (1909)
Min Temperature 21 °F 19 °F -12 °F (1887)
Degree Days  
Heating Degree Days 34    
Moisture  
Dew Point 19 °F    
Average Humidity 63    
Maximum Humidity 86    
Minimum Humidity 39    
Precipitation  
Precipitation 0.00 in - - ()
Sea Level Pressure  
Sea Level Pressure 30.28 in    
Wind  
Wind Speed 6 mph (SW)    
Max Wind Speed 13 mph    
Max Gust Speed 16 mph    
Visibility 10 miles    
Events      
Averages and records for this station are not official NWS values.
T = Trace of Precipitation, MM = Missing Value Source: NWS Daily Summary

Daily Weather History Graph

Daily Weather History Graph

Search for Another Location

Airport or City:

Trip Planner

Search our weather history database for the weather conditions in past years. The results will help you decide how hot, cold, wet, or windy it might be!

Date:

Astronomy

Nov. 28, 2012 Rise Set
Actual Time 7:09 AM CST 4:30 PM CST
Civil Twilight 6:38 AM CST 5:01 PM CST
Nautical Twilight 6:03 AM CST 5:36 PM CST
Astronomical Twilight 5:29 AM CST 6:10 PM CST
Moon 4:45 PM CST (11/28) 7:07 AM CST (11/28)
Length of Visible Light 10h 23m
Length of Day
9h 20m
Full, 100% of the Moon is Illuminated
Nov 28
Full
Dec 6
Last Quarter
Dec 13
New
Dec 19
First Quarter
Dec 28
Full

Hourly Weather History & Observations

Time (CST) Temp. Windchill Dew Point Humidity Pressure Visibility Wind Dir Wind Speed Gust Speed Precip Events Conditions
12:15 AM 28.4 °F 21.2 °F 14.0 °F 55% 30.22 in 10.0 mi WSW 6.9 mph - N/A   Clear
12:35 AM 28.4 °F 21.2 °F 14.0 °F 55% 30.22 in 10.0 mi WSW 6.9 mph - N/A   Clear
12:55 AM 28.4 °F 21.2 °F 14.0 °F 55% 30.22 in 10.0 mi West 6.9 mph - N/A   Clear
1:15 AM 26.6 °F 19.1 °F 14.0 °F 59% 30.22 in 10.0 mi WSW 6.9 mph - N/A   Clear
1:35 AM 26.6 °F 20.0 °F 14.0 °F 59% 30.23 in 10.0 mi WSW 5.8 mph - N/A   Clear
1:55 AM 26.6 °F 20.0 °F 15.8 °F 64% 30.24 in 10.0 mi WSW 5.8 mph - N/A   Clear
2:15 AM 26.6 °F 20.0 °F 15.8 °F 64% 30.24 in 10.0 mi West 5.8 mph - N/A   Clear
2:35 AM 26.6 °F 20.0 °F 15.8 °F 64% 30.26 in 10.0 mi WSW 5.8 mph - N/A   Clear
2:55 AM 26.6 °F 21.2 °F 17.6 °F 69% 30.26 in 10.0 mi West 4.6 mph - N/A   Clear
3:15 AM 26.6 °F 22.6 °F 15.8 °F 64% 30.25 in 10.0 mi WSW 3.5 mph - N/A   Clear
3:35 AM 24.8 °F 19.1 °F 15.8 °F 69% 30.26 in 10.0 mi WSW 4.6 mph - N/A   Clear
3:55 AM 26.6 °F 21.2 °F 15.8 °F 64% 30.26 in 10.0 mi WSW 4.6 mph - N/A   Clear
4:15 AM 26.6 °F 19.1 °F 15.8 °F 64% 30.27 in 10.0 mi West 6.9 mph - N/A   Clear
4:35 AM 24.8 °F 16.9 °F 15.8 °F 69% 30.28 in 10.0 mi West 6.9 mph - N/A   Clear
4:55 AM 24.8 °F 16.1 °F 17.6 °F 74% 30.29 in 10.0 mi West 8.1 mph - N/A   Clear
5:15 AM 24.8 °F 19.1 °F 17.6 °F 74% 30.30 in 10.0 mi West 4.6 mph - N/A   Clear
5:35 AM 24.8 °F 19.1 °F 17.6 °F 74% 30.30 in 10.0 mi West 4.6 mph - N/A   Clear
5:55 AM 23.0 °F 14.7 °F 15.8 °F 74% 30.31 in 10.0 mi West 6.9 mph - N/A   Clear
6:15 AM 23.0 °F 17.0 °F 17.6 °F 80% 30.32 in 10.0 mi West 4.6 mph - N/A   Clear
6:35 AM 24.8 °F 20.5 °F 17.6 °F 74% 30.32 in 10.0 mi WNW 3.5 mph - N/A   Clear
6:55 AM 24.8 °F - 17.6 °F 74% 30.33 in 10.0 mi Calm Calm - N/A   Clear
7:15 AM 21.2 °F 14.9 °F 15.8 °F 80% 30.34 in 10.0 mi WSW 4.6 mph - N/A   Clear
7:35 AM 21.2 °F 14.9 °F 17.6 °F 86% 30.35 in 10.0 mi WSW 4.6 mph - N/A   Clear
7:55 AM 23.0 °F 17.0 °F 17.6 °F 80% 30.35 in 10.0 mi West 4.6 mph - N/A   Clear
8:15 AM 24.8 °F - 19.4 °F 80% 30.35 in 10.0 mi Calm Calm - N/A   Clear
8:35 AM 26.6 °F - 19.4 °F 74% 30.36 in 10.0 mi Calm Calm - N/A   Clear
8:55 AM 28.4 °F - 21.2 °F 74% 30.36 in 10.0 mi Calm Calm - N/A   Clear
9:15 AM 28.4 °F - 21.2 °F 74% 30.36 in 10.0 mi Calm Calm - N/A   Clear
9:55 AM 32.0 °F - 21.2 °F 64% 30.36 in 10.0 mi Calm Calm - N/A   Clear
10:15 AM 32.0 °F - 23.0 °F 69% 30.36 in 10.0 mi Calm Calm - N/A   Clear
10:35 AM 33.8 °F - 23.0 °F 65% 30.36 in 10.0 mi Calm Calm - N/A   Clear
10:55 AM 33.8 °F 30.8 °F 23.0 °F 65% 30.36 in 10.0 mi West 3.5 mph - N/A   Clear
11:15 AM 35.6 °F - 23.0 °F 60% 30.35 in 10.0 mi Calm Calm - N/A   Clear
11:35 AM 35.6 °F 31.7 °F 23.0 °F 60% 30.34 in 10.0 mi West 4.6 mph - N/A   Clear
11:55 AM 37.4 °F 32.1 °F 23.0 °F 56% 30.33 in 10.0 mi West 6.9 mph - N/A   Clear
12:15 PM 37.4 °F 34.9 °F 23.0 °F 56% 30.33 in 10.0 mi West 3.5 mph - N/A   Clear
12:55 PM 39.2 °F 34.2 °F 23.0 °F 52% 30.32 in 10.0 mi SW 6.9 mph - N/A   Clear
1:15 PM 39.2 °F 32.0 °F 21.2 °F 49% 30.32 in 10.0 mi SW 11.5 mph 16.1 mph N/A   Clear
1:35 PM 41.0 °F 34.7 °F 21.2 °F 45% 30.31 in 10.0 mi SW 10.4 mph - N/A   Clear
1:55 PM 41.0 °F 33.9 °F 21.2 °F 45% 30.31 in 10.0 mi SW 12.7 mph - N/A   Clear
2:15 PM 42.8 °F 37.0 °F 21.2 °F 42% 30.30 in 10.0 mi SW 10.4 mph - N/A   Clear
2:35 PM 42.8 °F 36.6 °F 19.4 °F 39% 30.29 in 10.0 mi WSW 11.5 mph - N/A   Clear
2:55 PM 41.0 °F 34.7 °F 19.4 °F 42% 30.29 in 10.0 mi WSW 10.4 mph - N/A   Clear
3:15 PM 41.0 °F 34.7 °F 21.2 °F 45% 30.28 in 10.0 mi SW 10.4 mph - N/A   Clear
3:35 PM 41.0 °F 35.8 °F 21.2 °F 45% 30.28 in 10.0 mi SW 8.1 mph - N/A   Clear
3:55 PM 41.0 °F 35.2 °F 21.2 °F 45% 30.28 in 10.0 mi SW 9.2 mph - N/A   Clear
4:15 PM 37.4 °F 32.1 °F 21.2 °F 52% 30.27 in 10.0 mi SSW 6.9 mph - N/A   Clear
4:35 PM 35.6 °F 29.9 °F 19.4 °F 52% 30.26 in 10.0 mi SSW 6.9 mph - N/A   Clear
4:55 PM 32.0 °F 25.6 °F 19.4 °F 60% 30.26 in 10.0 mi SSW 6.9 mph - N/A   Clear
5:15 PM 32.0 °F 25.6 °F 19.4 °F 60% 30.26 in 10.0 mi SSW 6.9 mph - N/A   Clear
5:35 PM 32.0 °F 27.5 °F 19.4 °F 60% 30.25 in 10.0 mi South 4.6 mph - N/A   Clear
5:55 PM 32.0 °F 26.4 °F 19.4 °F 60% 30.25 in 10.0 mi South 5.8 mph - N/A   Clear
6:35 PM 33.8 °F 27.0 °F 21.2 °F 60% 30.24 in 10.0 mi South 8.1 mph - N/A   Clear
6:55 PM 32.0 °F 25.6 °F 21.2 °F 64% 30.24 in 10.0 mi SSE 6.9 mph - N/A   Clear
7:35 PM 32.0 °F 25.6 °F 21.2 °F 64% 30.24 in 10.0 mi SSE 6.9 mph - N/A   Clear
7:55 PM 32.0 °F 25.6 °F 21.2 °F 64% 30.23 in 10.0 mi SSE 6.9 mph - N/A   Clear
8:15 PM 32.0 °F 24.8 °F 21.2 °F 64% 30.23 in 10.0 mi SSE 8.1 mph - N/A   Clear
8:35 PM 32.0 °F 25.6 °F 21.2 °F 64% 30.23 in 10.0 mi SSE 6.9 mph - N/A   Clear
8:55 PM 32.0 °F 26.4 °F 21.2 °F 64% 30.23 in 10.0 mi SSE 5.8 mph - N/A   Clear
9:15 PM 32.0 °F 25.6 °F 21.2 °F 64% 30.22 in 10.0 mi SSE 6.9 mph - N/A   Clear
9:35 PM 32.0 °F 24.2 °F 21.2 °F 64% 30.22 in 10.0 mi South 9.2 mph - N/A   Clear
9:55 PM 32.0 °F 24.2 °F 21.2 °F 64% 30.21 in 10.0 mi South 9.2 mph - N/A   Clear
10:15 PM 32.0 °F 25.6 °F 21.2 °F 64% 30.22 in 10.0 mi South 6.9 mph - N/A   Clear
10:35 PM 30.2 °F 21.9 °F 21.2 °F 69% 30.21 in 10.0 mi South 9.2 mph - N/A   Clear
10:55 PM 32.0 °F 25.6 °F 23.0 °F 69% 30.21 in 10.0 mi South 6.9 mph - N/A   Clear
11:15 PM 32.0 °F 24.8 °F 23.0 °F 69% 30.20 in 10.0 mi South 8.1 mph - N/A   Clear
11:35 PM 32.0 °F 24.2 °F 23.0 °F 69% 30.20 in 10.0 mi South 9.2 mph - N/A   Clear
11:55 PM 32.0 °F 23.6 °F 23.0 °F 69% 30.19 in 10.0 mi South 10.4 mph - N/A   Clear